RH
30 37 36 35 33 26 26 23 22 18 16 52 66 73 67 66 67 72 70 72 72 73 68 70 76 82 83 85 88 89 90 92 90 90 92 93 92 94 93 94 92 83 91 95
29 40 30 32 36 34 33 31 29 23 20 48 69 72 65 64 72 74 77 81 80 79 74 73 80 82 86 88 91 91 91 90 90 92 92 96 97 94 93 93 99 97 92 94
32 20 30 34 37 39 37 30 26 25 26 58 64 72 75 67 69 70 75 80 81 86 85 78 79 80 84 87 90 92 90 90 89 94 96 96 96 95 93 96 96 99 97 89
34 27 25 33 36 37 44 28 24 24 30 39 40 50 78 77 78 78 85 91 90 88 78 79 76 79 80 83 89 91 90 91 89 95 97 96 94 94 98 99 99 100 98 97
41 30 34 35 31 32 38 27 28 30 34 40 41 48 62 78 86 84 88 84 81 78 75 84 78 76 79 86 90 94 93 92 91 95 97 98 98 98 97 100 100 99 99 100
33 24 26 32 28 28 28 38 49 53 50 70 42 37 63 91 78 86 84 80 80 79 76 81 83 82 87 90 93 91 92 91 94 98 100 100 100 100 99 98 100 99 100 100
29 28 24 24 28 28 33 36 59 69 73 56 51 43 43 86 81 81 83 84 83 81 82 79 89 91 92 96 90 89 93 93 96 98 100 100 100 99 100 100 100 100 100 100
44 51 31 28 30 38 41 38 52 64 80 72 50 63 69 79 77 77 80 85 85 84 84 82 89 91 93 95 96 92 95 94 96 97 100 99 100 100 100 100 100 100 100 100
47 46 29 26 29 27 43 48 37 59 64 80 64 77 81 82 85 80 82 82 90 88 88 90 88 89 90 93 98 96 95 93 97 96 98 97 100 98 100 100 100 100 100 100
38 52 32 28 26 26 35 40 53 71 81 84 86 85 77 95 86 85 92 92 93 83 88 92 89 86 85 91 93 93 94 95 96 100 98 97 99 100 100 100 100 100 100 99
28 44 40 28 34 37 41 50 55 58 71 75 84 81 84 84 81 86 89 90 94 95 95 97 90 84 85 88 90 89 98 98 98 95 97 93 97 99 100 100 100 100 100 98
36 47 50 37 27 30 30 46 60 67 74 81 79 82 82 83 82 83 84 89 95 95 95 94 89 85 87 90 89 91 96 100 100 98 96 95 96 98 100 100 100 100 100 100
44 75 62 55 39 36 43 44 55 63 68 83 83 79 84 84 87 84 88 95 97 92 95 96 90 86 90 92 92 92 96 100 100 100 97 97 97 98 100 100 100 100 100 100
52 70 76 73 61 61 55 56 60 64 74 74 79 81 99 96 96 97 88 92 94 92 96 97 82 87 93 88 91 93 99 100 100 100 98 98 94 95 98 99 99 100 100 100
60 77 71 61 50 60 76 65 58 72 59 58 57 74 84 90 94 96 93 92 90 90 92 97 94 89 94 90 92 98 100 99 100 99 98 99 90 90 91 94 97 99 98 100
71 87 78 68 57 57 78 67 57 52 60 77 82 76 77 87 90 90 92 93 91 92 92 83 83 84 87 94 97 97 99 100 100 98 96 99 89 87 87 88 93 95 94 97
76 86 91 86 64 94 96 85 75 62 69 74 80 70 88 91 82 85 88 80 82 82 86 84 88 88 89 96 95 97 99 100 99 98 98 99 100 86 86 85 89 92 91 92
89 95 99 96 88 96 66 74 68 71 79 81 84 88 82 81 80 80 77 81 76 77 81 84 93 91 91 90 90 91 94 96 100 98 99 100 100 85 88 86 90 93 90 89
78 95 98 97 96 81 79 76 77 69 70 80 90 87 83 80 79 86 75 76 83 86 94 92 98 85 88 90 91 90 96 95 98 100 100 100 100 83 91 96 94 94 91 85
86 92 98 98 94 94 65 70 59 52 77 78 80 83 80 77 92 89 83 81 85 85 86 89 88 82 88 93 88 90 98 97 96 96 100 100 100 81 86 95 99 95 92 85
98 99 96 90 96 74 60 65 54 74 75 78 74 77 77 84 83 86 80 84 84 85 91 90 82 88 95 92 85 100 100 100 93 90 85 89 93 97 71 80 99 96 93 90
87 93 90 82 90 85 63 56 64 75 84 78 77 76 79 88 84 79 78 83 90 92 92 88 83 92 93 94 85 100 100 92 82 84 82 79 89 98 89 80 89 97 98 93
83 70 84 77 78 80 80 66 74 75 82 79 79 80 80 81 79 76 83 82 88 94 96 78 85 91 92 95 92 100 95 88 73 76 82 79 76 87 90 88 88 100 96 98
71 68 83 77 80 83 78 76 72 72 77 73 73 74 75 80 77 83 82 83 94 96 84 76 85 91 95 90 85 89 75 78 78 69 78 78 79 73 83 90 91 97 100 99
74 72 90 92 87 79 74 74 77 78 75 76 72 71 75 77 84 84 85 86 93 96 92 74 86 90 93 91 85 82 80 69 83 75 73 76 76 75 72 78 99 95 93 91
76 86 87 85 80 77 79 81 75 76 75 73 76 79 75 75 83 86 84 87 89 94 93 80 84 87 89 87 85 83 80 77 72 80 73 73 75 75 77 70 63 82 96 96
Wind_Speed
2 1 7 9 7 2 2 2 2 3 2 6 3 5 4 3 6 7 7 8 9 8 10 14 16 19 19 22 25 27 29 33 34 36 36 34 33 33 29 28 27 35 32 31
2 6 7 4 5 4 3 3 5 4 1 5 3 2 1 2 3 4 5 5 5 7 9 16 15 16 17 20 25 28 28 30 29 29 29 28 30 27 28 30 31 29 32 30
6 3 5 5 3 4 3 5 3 5 3 4 7 2 5 2 4 4 4 2 3 6 8 14 16 18 23 30 33 28 27 27 27 29 28 28 25 25 24 32 31 35 34 32
5 7 6 2 4 8 6 8 6 4 3 4 3 5 4 6 5 2 3 5 5 5 5 14 18 23 26 25 25 24 24 26 25 27 27 28 26 28 29 29 32 34 36 32
8 2 2 4 7 5 7 6 7 4 3 2 4 1 1 8 6 4 2 3 4 5 7 11 19 22 24 27 25 24 24 25 26 28 27 26 27 29 32 33 33 31 30 33
5 1 4 7 4 10 4 5 6 4 3 3 9 7 4 5 5 4 1 3 5 6 6 10 17 20 23 26 26 26 28 26 28 29 29 29 29 34 33 32 31 31 33 31
2 10 4 4 2 2 5 5 1 1 1 7 1 6 2 5 3 4 4 4 5 5 5 7 14 17 20 23 23 24 25 25 28 29 30 29 28 30 30 31 30 32 32 31
3 6 10 7 14 8 7 7 4 5 4 3 2 6 3 4 6 6 7 5 4 5 5 6 13 16 18 21 21 24 25 25 29 29 30 28 28 26 28 29 30 29 31 32
3 6 4 3 4 13 6 10 7 4 2 1 2 2 2 6 5 5 4 4 3 4 4 6 13 16 20 22 19 22 24 25 27 28 27 28 27 28 29 30 28 29 30 31
5 5 2 3 3 1 8 8 3 1 4 5 2 4 4 12 9 7 3 2 1 2 4 5 12 18 20 20 19 22 21 22 25 26 27 27 27 27 27 28 29 30 31 31
13 3 6 3 2 4 3 3 1 4 4 4 1 5 4 10 8 8 6 5 4 3 1 2 13 17 19 20 22 23 22 22 25 26 27 27 28 28 28 27 28 32 33 35
8 2 10 17 12 2 6 6 6 6 6 1 2 6 3 6 7 7 6 6 4 1 2 4 13 18 20 22 24 23 23 21 25 24 25 27 28 29 31 31 32 32 32 33
5 2 9 7 1 8 8 5 3 3 2 6 5 4 3 5 6 5 6 4 3 3 3 5 11 18 19 21 22 22 24 21 25 25 24 27 28 28 28 30 33 32 32 33
6 6 8 9 3 1 6 6 4 3 6 4 5 3 7 9 9 7 5 4 4 1 1 1 8 16 18 21 23 24 23 21 25 23 23 26 29 28 28 27 29 29 30 33
5 3 3 7 11 4 4 10 10 13 13 5 8 9 7 16 13 8 6 5 5 2 3 3 4 12 14 18 21 20 19 23 25 21 22 26 29 27 28 28 27 28 30 32
5 7 2 4 5 7 8 17 17 15 2 3 4 4 2 7 9 7 9 7 5 3 3 5 7 10 13 13 16 19 19 21 22 20 21 23 29 29 30 31 29 30 31 33
3 3 2 10 4 3 8 12 11 5 4 7 6 5 8 6 11 10 8 7 5 4 3 5 6 8 10 13 16 19 20 20 18 20 22 23 26 30 32 32 33 34 33 33
5 4 3 2 4 7 4 1 2 8 3 3 4 7 9 9 6 7 4 6 6 5 4 7 6 6 10 13 16 17 20 21 19 19 21 22 24 30 30 32 32 32 31 32
3 5 3 2 3 4 2 4 7 7 6 6 8 10 12 14 7 3 4 3 5 5 8 8 5 6 11 15 15 16 20 22 22 19 20 20 23 30 28 28 30 31 29 30
7 5 3 2 3 3 2 3 4 3 5 12 10 14 17 11 5 4 8 8 8 10 9 8 5 7 12 15 13 16 21 22 23 22 20 17 17 29 28 26 25 26 26 26
4 3 7 5 4 5 3 6 4 5 5 11 13 14 15 6 1 9 12 9 12 11 10 8 7 8 11 13 13 13 16 21 19 18 19 21 18 17 30 27 25 26 24 24
6 6 4 5 4 7 5 4 6 4 4 8 8 10 11 10 13 14 11 10 12 12 10 7 8 8 9 12 14 12 14 17 16 16 18 20 21 18 23 28 28 28 27 27
5 6 4 6 5 1 3 1 3 5 6 5 8 11 13 15 13 13 11 10 11 12 11 8 10 8 9 10 13 12 13 13 15 16 19 19 20 19 20 27 29 25 29 26
1 1 3 3 2 2 1 2 3 5 6 8 11 15 15 15 14 12 10 12 11 14 13 10 10 9 9 11 12 13 12 11 14 17 18 18 19 19 18 21 26 26 24 24
2 5 5 1 1 2 1 2 6 10 12 13 12 13 14 15 12 13 9 12 14 15 12 10 11 9 8 7 9 11 11 12 12 15 17 17 18 18 20 18 18 22 23 24
4 5 4 5 9 4 5 9 9 12 12 13 13 10 15 18 13 17 14 16 17 15 14 11 9 7 5 4 5 6 9 10 12 12 14 15 16 17 17 18 18 16 16 19
Wind_Direction
20 68 219 198 191 117 123 217 250 274 316 88 72 134 160 110 58 50 43 27 19 9 352 3 4 4 4 8 10 8 5 4 5 1 355 350 344 338 336 334 331 331 331 327
12 239 244 201 172 195 227 235 254 288 270 89 163 166 235 195 85 75 48 32 16 356 360 1 359 1 4 9 11 10 8 4 4 358 349 344 336 336 331 333 328 326 329 324
185 242 43 164 175 180 227 208 211 209 74 70 121 263 209 172 136 121 86 57 28 10 357 355 352 358 7 12 7 5 3 1 1 357 350 345 340 338 340 337 331 325 324 322
234 254 246 206 237 181 225 204 206 209 118 246 176 281 225 182 181 139 41 17 1 357 13 359 357 5 7 3 3 3 2 359 359 356 353 350 344 337 331 329 327 322 327 322
235 201 163 238 223 181 239 182 193 170 145 30 186 294 293 131 220 196 42 9 9 13 27 10 1 0 359 0 1 1 359 0 359 358 354 347 340 339 333 331 328 324 322 323
221 217 182 196 213 200 141 75 48 54 92 285 199 185 216 183 197 154 139 17 21 19 26 21 3 0 357 1 4 2 359 358 357 357 354 350 347 340 333 334 330 329 328 325
241 237 211 190 168 110 127 119 286 310 204 235 312 196 278 166 140 135 140 60 25 26 19 19 4 359 356 1 3 2 358 357 356 358 355 350 349 340 329 331 331 333 334 332
212 312 192 195 198 184 195 161 172 215 203 253 61 222 259 139 138 132 107 106 61 28 18 27 11 359 357 2 2 358 358 357 357 358 354 349 349 339 335 334 335 336 335 332
234 273 282 228 167 169 191 206 180 119 2 60 211 309 201 147 164 149 128 87 58 37 14 41 15 5 6 5 2 356 359 360 358 358 356 353 351 346 340 341 341 341 341 342
225 273 262 298 135 292 188 156 148 132 209 227 242 254 237 191 185 165 166 138 141 35 38 37 17 13 14 10 7 6 5 1 356 357 357 354 350 349 346 349 346 347 349 348
228 192 246 76 229 195 160 202 100 141 162 196 238 255 218 189 172 169 175 187 203 243 3 27 18 16 14 12 14 12 6 360 359 1 357 358 354 353 353 356 351 354 356 358
201 216 253 252 254 356 298 223 177 202 214 163 122 271 348 143 143 150 168 173 198 145 47 37 22 15 11 12 13 10 8 2 1 360 1 1 358 357 358 359 359 359 358 359
184 209 258 294 339 223 231 262 174 123 96 173 166 257 132 121 143 159 169 167 118 72 35 18 19 10 5 8 9 10 12 3 1 4 4 2 2 1 358 359 0 359 0 2
192 182 179 229 209 122 193 190 183 179 224 196 216 202 204 195 189 178 172 143 125 107 57 6 20 5 5 7 10 10 8 3 3 5 7 4 1 0 0 360 1 360 3 7
129 278 251 239 236 177 226 284 244 237 234 214 250 196 208 200 191 186 161 153 132 89 54 51 35 2 2 2 7 6 8 4 5 7 6 4 0 3 5 4 4 4 7 10
153 216 161 244 222 206 240 234 257 241 215 104 166 221 203 119 118 148 171 157 155 146 60 42 33 9 4 356 2 9 8 3 8 10 7 3 4 4 6 6 5 8 9 12
161 159 162 251 234 36 272 228 235 196 182 158 188 198 146 132 157 166 154 158 155 133 118 85 42 13 355 10 16 18 12 11 13 11 8 5 5 7 6 8 9 9 10 12
142 117 179 268 164 229 237 286 182 186 150 168 99 143 147 135 107 105 129 139 149 147 127 84 53 17 15 24 30 30 26 20 17 15 11 8 8 9 9 10 9 7 9 12
104 137 211 249 225 309 277 189 163 177 225 175 134 118 112 109 81 28 121 123 151 144 112 97 87 34 31 31 31 35 31 25 23 17 14 12 17 14 12 11 6 5 8 11
127 143 189 185 241 263 257 157 165 115 277 174 149 149 141 146 166 203 157 142 131 116 118 106 84 51 41 35 35 47 35 29 25 24 22 21 20 19 15 13 9 8 11 11
148 180 223 229 266 281 188 147 164 150 242 146 151 151 156 166 161 131 135 128 130 123 121 110 79 63 46 40 38 48 29 30 27 29 34 33 31 17 22 25 20 14 15 17
171 174 188 201 224 252 141 85 182 193 36 136 136 145 138 117 123 129 132 131 128 128 122 112 94 76 56 48 45 49 33 35 33 37 39 37 36 37 27 31 31 20 19 18
194 187 183 185 205 342 336 4 91 126 132 148 127 132 134 135 138 139 138 136 139 139 127 116 113 93 66 57 45 46 35 37 39 43 44 40 39 38 36 33 32 24 23 22
215 144 131 119 182 204 219 57 73 116 117 123 130 135 140 139 141 137 140 142 139 143 133 126 123 97 73 64 58 55 46 47 45 46 45 43 40 36 36 41 36 33 25 22
189 132 132 54 286 100 257 168 138 108 111 114 125 139 140 138 145 146 149 149 149 149 143 131 126 108 89 74 63 55 53 51 50 47 47 47 44 40 40 41 37 34 36 30
191 168 171 221 186 159 163 155 141 131 134 136 137 133 146 145 148 151 150 153 153 152 152 142 137 133 118 84 65 55 54 53 56 55 46 43 41 41 38 33 40 42 33 32